VK4TOM-13 Weather Reports


time (UTC)temp
C
wind
direction
speed
KPH
gust
KPH
rain 1hr
cm
rain 24hr
cm
rain mn
cm
humidity
%
barometer
mb
20260509000527 22 151 0.0 4.8 0.00 0.00 0.00 56 1021.4
20260508230520 20 178 1.6 3.2 0.00 0.00 0.00 70 1021.7
20260508225519 18 250 0.0 3.2 0.00 0.00 0.00 70 1021.6
20260508224518 17 86 0.0 3.2 0.00 0.00 0.00 70 1021.4
20260508223517 16 133 0.0 1.6 0.00 0.00 0.00 70 1021.4
20260508222516 15 180 0.0 3.2 0.00 0.00 0.00 70 1021.4
20260508221515 15 135 0.0 1.6 0.00 0.00 0.00 70 1021.4
20260508220514 13 135 0.0 1.6 0.00 0.00 0.00 70 1021.3
20260508215513 12 170 0.0 1.6 0.00 0.00 0.00 70 1021.2
20260508214512 11 149 0.0 1.6 0.00 0.00 0.00 70 1021.1
20260508213511 10 135 0.0 0.0 0.00 0.00 0.00 70 1021.3
20260508212509 10 45 0.0 0.0 0.00 0.00 0.00 70 1021.3
20260508211508 10 45 0.0 0.0 0.00 0.00 0.00 70 1021.3
20260508210508 9 45 0.0 0.0 0.00 0.00 0.00 70 1021.1
20260508205507 9 45 0.0 0.0 0.00 0.00 0.00 70 1020.9
20260508204505 9 45 0.0 0.0 0.00 0.00 0.00 70 1020.7
20260508203504 9 90 0.0 0.0 0.00 0.00 0.00 70 1020.4
20260508202503 9 90 0.0 0.0 0.00 0.00 0.00 70 1020.3
20260508201502 9 90 0.0 0.0 0.00 0.00 0.00 70 1020.1
20260508200501 9 45 0.0 0.0 0.00 0.00 0.00 70 1019.9
20260508195500 9 45 0.0 0.0 0.00 0.00 0.00 70 1019.8
20260508194459 10 45 0.0 0.0 0.00 0.00 0.00 70 1019.7
20260508193458 10 45 0.0 0.0 0.00 0.00 0.00 70 1019.6
20260508192457 10 45 0.0 0.0 0.00 0.00 0.00 70 1019.4
20260508191456 10 45 0.0 0.0 0.00 0.00 0.00 70 1019.1
20260508190455 10 45 0.0 0.0 0.00 0.00 0.00 70 1019.2
20260508185454 10 45 0.0 0.0 0.00 0.00 0.00 70 1019.0
20260508184452 10 45 0.0 0.0 0.00 0.00 0.00 70 1018.9
20260508183451 10 45 0.0 0.0 0.00 0.00 0.00 70 1018.9
20260508182450 10 45 0.0 0.0 0.00 0.00 0.00 70 1019.0
20260508181449 10 45 0.0 0.0 0.00 0.00 0.00 70 1018.9
20260508180448 10 90 0.0 0.0 0.00 0.00 0.00 70 1018.7
20260508175447 10 45 0.0 0.0 0.00 0.00 0.00 70 1018.7
20260508174446 10 90 0.0 0.0 0.00 0.00 0.00 70 1018.7
20260508173445 10 45 0.0 0.0 0.00 0.00 0.00 70 1018.7
20260508172444 11 45 0.0 0.0 0.00 0.00 0.00 70 1018.7
20260508171443 11 45 0.0 0.0 0.00 0.00 0.00 70 1018.8
20260508170442 11 45 0.0 0.0 0.00 0.00 0.00 70 1018.8
20260508165441 11 45 0.0 0.0 0.00 0.00 0.00 70 1018.8
20260508164440 11 45 0.0 0.0 0.00 0.00 0.00 70 1018.7
20260508163439 11 45 0.0 0.0 0.00 0.00 0.00 70 1019.0
20260508162438 11 45 0.0 0.0 0.00 0.00 0.00 70 1018.9
20260508161437 11 45 0.0 0.0 0.00 0.00 0.00 70 1019.0
20260508160435 11 45 0.0 0.0 0.00 0.00 0.00 70 1019.2
20260508155434 12 45 0.0 0.0 0.00 0.00 0.00 70 1019.4
20260508154433 12 45 0.0 0.0 0.00 0.00 0.00 70 1019.3
20260508153432 12 45 0.0 0.0 0.00 0.00 0.00 70 1019.3
20260508152431 12 45 0.0 0.0 0.00 0.00 0.00 70 1019.3
20260508150429 12 45 0.0 0.0 0.00 0.00 0.00 70 1019.4
20260508145428 12 45 0.0 0.0 0.00 0.00 0.00 70 1019.4
20260508144427 12 45 0.0 0.0 0.00 0.00 0.00 70 1019.3
20260508143426 12 45 0.0 0.0 0.00 0.00 0.00 70 1019.4
20260508142425 12 45 0.0 0.0 0.00 0.00 0.00 70 1019.5
20260508141424 12 45 0.0 0.0 0.00 0.00 0.00 70 1019.6
20260508140422 11 45 0.0 0.0 0.00 0.00 0.00 70 1019.7
20260508135421 11 65 0.0 0.0 0.00 0.00 0.00 70 1019.8
20260508134420 11 45 0.0 0.0 0.00 0.00 0.00 70 1019.6
20260508133419 11 45 0.0 0.0 0.00 0.00 0.00 70 1019.7
20260508132418 11 45 0.0 0.0 0.00 0.00 0.00 70 1019.9
20260508131417 11 95 0.0 0.0 0.00 0.00 0.00 70 1020.0
20260508130416 11 45 0.0 0.0 0.00 0.00 0.00 70 1020.0
20260508125415 12 45 0.0 0.0 0.00 0.00 0.00 70 1020.0
20260508124414 12 45 0.0 0.0 0.00 0.00 0.00 70 1019.9
20260508123413 12 45 0.0 0.0 0.00 0.00 0.00 70 1019.9
20260508122412 12 45 0.0 0.0 0.00 0.00 0.00 70 1020.0
20260508121411 12 45 0.0 0.0 0.00 0.00 0.00 70 1020.1
20260508120410 12 45 0.0 0.0 0.00 0.00 0.00 70 1020.0
20260508115409 12 45 0.0 0.0 0.00 0.00 0.00 66 1019.9
20260508114408 13 45 0.0 0.0 0.00 0.00 0.00 63 1020.0
20260508113407 13 45 0.0 0.0 0.00 0.00 0.00 61 1020.0
20260508112405 13 45 0.0 0.0 0.00 0.00 0.00 58 1020.0
20260508111404 13 45 0.0 0.0 0.00 0.00 0.00 56 1020.1
20260508110403 13 45 0.0 0.0 0.00 0.00 0.00 53 1020.1
20260508105402 14 45 0.0 0.0 0.00 0.00 0.00 51 1020.0
20260508104401 14 45 0.0 0.0 0.00 0.00 0.00 50 1019.9
20260508103400 14 45 0.0 0.0 0.00 0.00 0.00 49 1019.9
20260508102359 15 45 0.0 0.0 0.00 0.00 0.00 49 1019.7
20260508101358 15 45 0.0 0.0 0.00 0.00 0.00 47 1019.7
20260508100357 15 45 0.0 0.0 0.00 0.00 0.00 46 1019.5
20260508095356 16 45 0.0 0.0 0.00 0.00 0.00 45 1019.3
20260508094355 16 45 0.0 0.0 0.00 0.00 0.00 43 1019.2
20260508093354 16 45 0.0 0.0 0.00 0.00 0.00 42 1019.0
20260508092352 16 45 0.0 0.0 0.00 0.00 0.00 42 1018.9
20260508091351 16 135 0.0 0.0 0.00 0.00 0.00 41 1019.0
20260508090350 16 45 0.0 0.0 0.00 0.00 0.00 40 1018.8
20260508085350 17 45 0.0 0.0 0.00 0.00 0.00 40 1018.6
20260508084348 17 90 0.0 0.0 0.00 0.00 0.00 38 1018.4
20260508083347 17 45 0.0 0.0 0.00 0.00 0.00 37 1018.2
20260508082346 18 45 0.0 0.0 0.00 0.00 0.00 36 1018.1
20260508081345 18 169 0.0 0.0 0.00 0.00 0.00 35 1017.9
20260508080344 19 55 0.0 0.0 0.00 0.00 0.00 33 1017.9
20260508075343 20 45 0.0 0.0 0.00 0.00 0.00 31 1017.7
20260508074342 20 45 0.0 0.0 0.00 0.00 0.00 30 1017.6
20260508073341 21 45 0.0 0.0 0.00 0.00 0.00 28 1017.3
20260508072340 22 45 0.0 0.0 0.00 0.00 0.00 26 1017.1
20260508071339 22 45 0.0 0.0 0.00 0.00 0.00 23 1017.0
20260508070338 23 185 0.0 0.0 0.00 0.00 0.00 23 1016.8
20260508065337 23 85 0.0 0.0 0.00 0.00 0.00 21 1016.5
20260508064335 24 101 0.0 1.6 0.00 0.00 0.00 21 1016.4
20260508063334 24 65 1.6 3.2 0.00 0.00 0.00 20 1016.4
20260508062333 24 82 0.0 4.8 0.00 0.00 0.00 20 1016.2
20260508061332 24 226 1.6 4.8 0.00 0.00 0.00 19 1016.2
20260508060331 25 140 1.6 1.6 0.00 0.00 0.00 19 1016.2
20260508055330 25 152 3.2 3.2 0.00 0.00 0.00 18 1016.1
20260508054329 26 246 0.0 6.4 0.00 0.00 0.00 18 1016.1
20260508053328 27 146 4.8 4.8 0.00 0.00 0.00 17 1016.0
20260508052327 28 109 0.0 3.2 0.00 0.00 0.00 16 1015.9
20260508051326 28 90 0.0 3.2 0.00 0.00 0.00 16 1015.8
20260508050325 28 79 0.0 4.8 0.00 0.00 0.00 16 1015.9
20260508045324 28 143 0.0 6.4 0.00 0.00 0.00 17 1016.0
20260508044322 28 178 3.2 6.4 0.00 0.00 0.00 17 1016.1
20260508043322 28 132 4.8 6.4 0.00 0.00 0.00 18 1016.1
20260508042321 28 71 1.6 6.4 0.00 0.00 0.00 17 1016.1
20260508041320 27 128 0.0 4.8 0.00 0.00 0.00 18 1016.3
20260508040318 28 141 4.8 4.8 0.00 0.00 0.00 18 1016.4
20260508035317 27 92 1.6 6.4 0.00 0.00 0.00 20 1016.6
20260508034316 27 154 3.2 4.8 0.00 0.00 0.00 21 1016.8
20260508033315 27 240 0.0 6.4 0.00 0.00 0.00 21 1016.9
20260508031313 26 205 0.0 6.4 0.00 0.00 0.00 22 1017.2